Location: Oshawa
(43.9000°N, 78.8670°W)
Time: 09:19:54
(UTC-05:00)

S-56A Canister/Altair - All Passes

Search period start: 23 November 2014 00:00
Search period end: 03 December 2014 00:00
Orbit: 634 x 2502 km, 38.9° (Epoch: 23 November)

Date Brightness Start Highest point End Pass type
(mag) Time Alt. Az. Time Alt. Az. Time Alt. Az.
23 Nov - 09:21:12 10° S 09:25:30 21° SE 09:31:02 10° E daylight
23 Nov - 11:22:02 10° WSW 11:28:29 54° SSE 11:38:17 10° E daylight
23 Nov - 13:24:53 10° W 13:32:59 65° S 13:45:14 10° ESE daylight
23 Nov - 15:28:38 10° W 15:38:08 47° SSW 15:51:09 10° SE daylight
23 Nov - 17:34:25 10° W 17:43:03 23° SW 17:53:09 10° S visible
24 Nov - 08:50:00 10° S 08:53:30 17° SE 08:57:45 10° E daylight
24 Nov - 10:50:14 10° SW 10:56:12 49° SSE 11:05:09 10° E daylight
24 Nov - 12:52:54 10° W 13:00:27 65° S 13:12:00 10° ESE daylight
24 Nov - 14:56:26 10° W 15:05:25 49° SSW 15:18:07 10° SE daylight
24 Nov - 17:01:43 10° W 17:10:21 25° SW 17:20:48 10° S visible
25 Nov - 08:19:07 10° SSE 08:21:32 13° SE 08:24:14 10° ESE daylight
25 Nov - 10:18:28 10° SW 10:24:00 44° SSE 10:32:06 10° E daylight
25 Nov - 12:20:57 10° W 12:27:59 64° S 12:38:48 10° ESE daylight
25 Nov - 14:24:18 10° W 14:32:46 51° SSW 14:45:03 10° SE daylight
25 Nov - 16:29:09 10° W 16:37:40 27° SW 16:48:18 10° SSE daylight
26 Nov - 09:46:45 10° SW 09:51:52 39° SSE 09:59:06 10° E daylight
26 Nov - 11:49:02 10° WSW 11:55:35 63° S 12:05:39 10° E daylight
26 Nov - 13:52:14 10° W 14:00:11 52° SSW 14:11:57 10° SE daylight
26 Nov - 15:56:43 10° W 16:05:01 29° SSW 16:15:42 10° SSE daylight
27 Nov - 09:15:05 10° SW 09:19:47 34° SSE 09:26:11 10° E daylight
27 Nov - 11:17:09 10° WSW 11:23:15 60° S 11:32:33 10° E daylight
27 Nov - 13:20:13 10° W 13:27:40 53° SSW 13:38:51 10° ESE daylight
27 Nov - 15:24:23 10° W 15:32:24 30° SSW 15:43:00 10° SSE daylight
28 Nov - 08:43:28 10° SSW 08:47:45 28° SSE 08:53:19 10° E daylight
28 Nov - 10:45:18 10° WSW 10:51:00 58° S 10:59:31 10° E daylight
28 Nov - 12:48:14 10° W 12:55:12 54° SSW 13:05:45 10° ESE daylight
28 Nov - 14:52:08 10° W 14:59:49 32° SSW 15:10:15 10° SSE daylight
28 Nov - 17:01:36 10° SW 17:04:16 11° SW 17:07:06 10° SSW visible
29 Nov - 08:11:54 10° SSW 08:15:45 24° SSE 08:20:30 10° E daylight
29 Nov - 10:13:28 10° WSW 10:18:48 54° S 10:26:35 10° E daylight
29 Nov - 12:16:18 10° W 12:22:49 55° S 12:32:42 10° ESE daylight
29 Nov - 14:19:58 10° W 14:27:17 33° SSW 14:37:26 10° SSE daylight
29 Nov - 16:27:50 10° WSW 16:31:44 12° SW 16:36:02 10° SSW daylight
30 Nov - 07:40:24 10° SSW 07:43:46 20° SE 07:47:42 10° E daylight
30 Nov - 09:41:39 10° WSW 09:46:39 50° SSE 09:53:43 10° E daylight
30 Nov - 11:44:23 10° W 11:50:29 55° S 11:59:40 10° ESE daylight
30 Nov - 13:47:52 10° W 13:54:48 34° SSW 14:04:36 10° SE daylight
30 Nov - 15:54:42 10° WSW 15:59:13 14° SW 16:04:21 10° SSW daylight
01 Dec - 07:09:01 10° S 07:11:48 16° SE 07:14:53 10° ESE daylight
01 Dec - 09:09:51 10° WSW 09:14:33 46° SSE 09:20:57 10° E daylight
01 Dec - 11:12:30 10° W 11:18:12 55° S 11:26:43 10° ESE daylight
01 Dec - 13:15:49 10° W 13:22:22 36° SSW 13:31:44 10° SE daylight
01 Dec - 15:21:54 10° WSW 15:26:43 15° SW 15:32:23 10° S daylight
02 Dec - 06:37:48 10° S 06:39:50 13° SE 06:41:57 10° ESE visible
02 Dec - 08:38:03 10° SW 08:42:29 41° SSE 08:48:16 10° E daylight
02 Dec - 10:40:38 10° W 10:45:59 55° S 10:53:49 10° ESE daylight
02 Dec - 12:43:50 10° W 12:50:00 37° SSW 12:58:53 10° SE daylight
02 Dec - 14:49:19 10° WSW 14:54:16 16° SW 15:00:13 10° S daylight
